Location: Peterborough
(44.3091°N, 78.3197°W)
Time: 12:12:02
(UTC-04:00)

A-11 Canister half - Visible Passes

Search period start: 04 October 2024 00:00
Search period end: 14 October 2024 00:00
Orbit: 1524 x 1684 km, 47.3° (Epoch: 03 October)

Date Brightness Start Highest point End Pass type
(mag) Time Alt. Az. Time Alt. Az. Time Alt. Az.
07 Oct 11.2 06:43:19 10° S 06:49:26 20° SE 06:55:32 10° E visible
08 Oct 11.2 06:21:59 10° SSE 06:27:46 18° SE 06:33:32 10° E visible
09 Oct 11.2 06:00:39 10° SSE 06:06:06 17° SE 06:11:31 10° E visible
10 Oct 11.1 05:39:23 10° SSE 05:44:26 16° SE 05:49:27 10° E visible
11 Oct 11.1 05:18:10 10° SSE 05:22:46 15° SE 05:27:20 10° E visible
12 Oct 11.1 04:57:01 10° SSE 05:01:06 14° ESE 05:05:08 10° E visible
12 Oct 9.9 06:55:27 10° SSW 07:04:17 49° SE 07:13:05 10° ENE visible
13 Oct 11.1 04:36:00 10° SE 04:39:25 12° ESE 04:42:51 10° E visible
13 Oct 9.9 06:33:47 10° SSW 06:42:34 47° SE 06:51:17 10° ENE visible
